Andover, NJ

6:14 PM EDT on August 17, 2017 (GMT -0400)
Andover

Weather History for K12N - July, 2013

Change the Weather History Date:

Thursday, July 25, 2013

  Actual Average (KFWN) Record (KFWN)
Temperature  
Mean Temperature 64 °F -  
Max Temperature 71 °F 82 °F 93 °F (2001)
Min Temperature 57 °F 58 °F 48 °F (1953)
Degree Days  
Heating Degree Days 2    
Growing Degree Days 14 (Base 50)    
Moisture  
Dew Point 53 °F    
Average Humidity 71    
Maximum Humidity 90    
Minimum Humidity 63    
Precipitation  
Precipitation 0.00 in - - ()
Sea Level Pressure  
Sea Level Pressure 30.03 in    
Wind  
Wind Speed 4 mph (NNE)    
Max Wind Speed 9 mph    
Max Gust Speed 18 mph    
Averages and records for this station are not official NWS values.
T = Trace of Precipitation, MM = Missing Value Source: NWS Daily Summary

Daily Weather History Graph

Daily Weather History Graph

Search for Another Location

Airport or City:

Trip Planner

Search our weather history database for the weather conditions in past years. The results will help you decide how hot, cold, wet, or windy it might be!

Date:

Astronomy

Jul. 25, 2013 Rise Set
Actual Time 5:48 AM EDT 8:21 PM EDT
Civil Twilight 5:16 AM EDT 8:53 PM EDT
Nautical Twilight 4:37 AM EDT 9:32 PM EDT
Astronomical Twilight 3:53 AM EDT 10:16 PM EDT
Moon 9:58 PM EDT (7/25) 9:17 AM EDT (7/25)
Length of Visible Light 15h 36m
Length of Day
14h 33m
Waning Gibbous, 88% of the Moon is Illuminated
Jul 25
Waning Gibbous
Jul 29
Last Quarter
Aug 6
New
Aug 14
First Quarter
Aug 20
Full

Hourly Weather History & Observations

Time (EDT) Temp. Dew Point Humidity Pressure Visibility Wind Dir Wind Speed Gust Speed Precip Events Conditions
12:54 AM 59.0 °F 51.1 °F 75% 29.98 in - NNW 3.5 mph - N/A   Unknown
1:54 AM 57.9 °F 51.1 °F 78% 29.97 in - Calm Calm - N/A   Unknown
2:54 AM 59.0 °F 51.1 °F 75% 29.96 in - Variable 4.6 mph - N/A   Unknown
3:54 AM 61.0 °F 52.0 °F 72% 29.96 in - NE 5.8 mph - N/A   Unknown
4:54 AM 60.1 °F 50.0 °F 69% 29.98 in - NE 6.9 mph - N/A   Unknown
5:54 AM 60.1 °F 48.9 °F 67% 29.98 in - Variable 6.9 mph - N/A   Unknown
6:54 AM 60.1 °F 48.0 °F 64% 29.99 in - NE 9.2 mph 17.3 mph N/A   Unknown
7:54 AM 60.1 °F 48.0 °F 64% 30.02 in - Variable 5.8 mph 18.4 mph N/A   Unknown
8:54 AM 61.0 °F 50.0 °F 67% 30.03 in - Variable 6.9 mph 17.3 mph N/A   Unknown
9:54 AM 62.1 °F 50.0 °F 65% 30.05 in - Variable 5.8 mph - N/A   Unknown
10:54 AM 63.0 °F 51.1 °F 65% 30.04 in - Variable 6.9 mph - N/A   Unknown
11:54 AM 63.0 °F 50.0 °F 63% 30.06 in - NE 8.1 mph - N/A   Unknown
12:54 PM 63.0 °F 51.1 °F 65% 30.07 in - Variable 4.6 mph - N/A   Unknown
1:54 PM 64.9 °F 53.1 °F 65% 30.07 in - Variable 3.5 mph - N/A   Unknown
2:54 PM 66.9 °F 54.0 °F 63% 30.06 in - Variable 4.6 mph - N/A   Unknown
3:54 PM 70.0 °F 57.0 °F 63% 30.04 in - Variable 4.6 mph - N/A   Unknown
4:54 PM 70.0 °F 57.0 °F 63% 30.04 in - Variable 6.9 mph - N/A   Unknown
5:54 PM 69.1 °F 57.0 °F 65% 30.04 in - NE 4.6 mph - N/A   Unknown
6:54 PM 66.9 °F 57.0 °F 70% 30.06 in - North 3.5 mph - N/A   Unknown
7:54 PM 66.9 °F 57.0 °F 70% 30.06 in - NE 3.5 mph - N/A   Unknown
8:54 PM 64.0 °F 57.9 °F 80% 30.05 in - Calm Calm - N/A   Unknown
9:54 PM 62.1 °F 57.9 °F 86% 30.06 in - Calm Calm - N/A   Unknown
10:54 PM 61.0 °F 57.9 °F 90% 30.07 in - Calm Calm - N/A   Unknown
11:54 PM 61.0 °F 57.9 °F 90% 30.06 in - Calm Calm - N/A   Unknown